Weather reports worldwide

Advertisment
Cannes, France (7684): temperature & dewpoint: 12.01.2020 12:00:00 - 18.01.2020 12:00:00 (CET)Cannes, France (7684): temperature 5cm: 12.01.2020 12:00:00 - 18.01.2020 12:00:00 (CET)Cannes, France (7684): wind speed & gusts: 12.01.2020 12:00:00 - 18.01.2020 12:00:00 (CET)Cannes, France (7684): wind direction: 12.01.2020 12:00:00 - 18.01.2020 12:00:00 (CET)Cannes, France (7684): reduced air pressure: 12.01.2020 12:00:00 - 18.01.2020 12:00:00 (CET)Cannes, France (7684): visibility: 12.01.2020 12:00:00 - 18.01.2020 12:00:00 (CET)Cannes, France (7684): precipitation: 12.01.2020 12:00:00 - 18.01.2020 12:00:00 (CET)
Date & Time tt [°C] td [°C] tt 5cm [°C] ff [km/h] ff [kn] fx [km/h] fx [kn] dd ppp [hPa] vv [km] rr [mm]
18.01.2020 12:00:00 12,5 5,9 13,8 4 2 9 5 SSW 1023,2 59 0,0
18.01.2020 11:00:00 10,6 5,6 13,4 3 1 10 5 NNE 1023,6 52 0,0
18.01.2020 10:00:00 8,0 4,9 5,1 6 3 14 8 N 1023,4 54 0,0
18.01.2020 09:00:00 5,7 4,0 2,4 7 4 15 8 N 1023,0 20 0,0
18.01.2020 08:00:00 4,7 3,7 2,4 4 2 13 7 NNW 1022,4 60 0,0
18.01.2020 07:00:00 4,8 4,2 1,7 8 4 13 7 N 1022,2 60 0,0
18.01.2020 06:00:00 4,6 4,0 1,4 3 2 11 6 W 1021,6 31 0,0
18.01.2020 05:00:00 5,4 4,7 2,1 0 0 8 4 N 1021,3 50 0,0
18.01.2020 04:00:00 6,3 4,9 3,5 0 0 9 5 N 1020,9 60 0,0
18.01.2020 03:00:00 7,9 4,7 4,8 6 4 16 8 N 1020,6 60 0,0
18.01.2020 02:00:00 10,3 3,6 7,8 7 4 42 23 SE 1019,5 60 0,0
18.01.2020 01:00:00 11,8 3,0 7,4 22 12 49 26 NW 1018,8 60 0,0
18.01.2020 00:00:00 9,1 6,0 7,4 3 2 10 6 E 1018,9 60 0,0
17.01.2020 23:00:00 8,8 7,4 7,8 3 1 15 8 NE 1018,7 60 0,0
17.01.2020 22:00:00 9,0 7,1 7,1 7 4 24 13 SSW 1019,0 60 0,0
17.01.2020 21:00:00 9,4 8,0 7,1 13 7 22 12 WSW 1019,2 55 0,0
17.01.2020 20:00:00 10,2 9,9 9,7 7 4 16 9 NNE 1020,0 4,9 9,8
17.01.2020 19:00:00 10,2 9,9 9,8 9 5 17 9 N 1020,9 0,8 16,3
17.01.2020 18:00:00 10,0 9,5 9,9 6 3 11 6 NNE 1021,6 0,8 5,9
17.01.2020 17:00:00 10,1 9,3 9,9 4 2 8 4 N 1022,2 7 0,4
17.01.2020 16:00:00 10,5 9,6 10,2 4 2 11 6 NE 1022,7 4,6 1,2
17.01.2020 15:00:00 11,0 9,3 10,6 4 2 9 5 N 1023,6 7 0,4
17.01.2020 14:00:00 11,2 9,6 10,6 3 2 10 6 N 1024,4 10 0,2
17.01.2020 13:00:00 10,9 8,5 10,6 6 3 12 6 NNE 1025,5 19 0,0
17.01.2020 12:00:00 11,0 8,2 10,6 3 1 5 3 N 1026,2 16 0,0
17.01.2020 11:00:00 10,7 7,6 10,6 0 0 6 4 N 1026,7 15 0,0
17.01.2020 10:00:00 10,6 7,1 9,6 3 1 10 6 W 1026,9 39 0,0
17.01.2020 09:00:00 9,1 6,9 7,4 3 2 10 5 N 1027,5 32 0,0
17.01.2020 08:00:00 8,1 6,2 5,5 5 3 8 5 N 1027,4 29 0,0
17.01.2020 07:00:00 7,7 6,0 6,0 4 2 13 7 N 1027,2 32 0,0
17.01.2020 06:00:00 8,0 6,3 7,0 6 4 11 6 NNE 1027,2 35 0,0
17.01.2020 05:00:00 7,8 6,1 7,0 4 2 9 5 N 1027,5 38 0,0
17.01.2020 04:00:00 7,6 6,1 6,6 5 3 11 6 N 1028,1 31 0,0
17.01.2020 03:00:00 7,3 5,6 6,5 7 4 13 7 N 1028,6 20 0,0
17.01.2020 02:00:00 6,8 5,6 5,6 4 2 16 8 N 1028,7 20 0,0
17.01.2020 01:00:00 6,2 5,0 5,0 9 5 16 9 N 1029,2 17 0,0
17.01.2020 00:00:00 6,1 5,2 4,9 7 4 15 8 N 1029,7 13 0,0
16.01.2020 23:00:00 7,0 5,8 5,9 9 5 14 8 N 1029,8 13 0,0
16.01.2020 22:00:00 7,6 6,5 6,5 8 4 13 7 N 1030,1 13 0,0
16.01.2020 21:00:00 8,3 7,1 6,4 8 4 12 6 N 1030,3 9 0,0
16.01.2020 20:00:00 8,8 7,4 7,1 4 2 11 6 N 1030,4 11 0,0
16.01.2020 19:00:00 9,7 8,0 8,0 6 4 11 6 NNE 1030,2 13 0,0
16.01.2020 18:00:00 10,2 8,0 7,0 6 3 9 5 N 1029,9 8 0,0
16.01.2020 17:00:00 12,3 7,6 8,0 0 0 10 6 N 1029,6 50 0,0
16.01.2020 16:00:00 13,4 8,5 13,1 6 3 16 8 SE 1029,5 59 0,0
16.01.2020 15:00:00 14,3 9,5 14,3 9 5 17 9 SSE 1029,5 60 0,0
16.01.2020 14:00:00 13,4 8,5 13,8 11 6 18 10 SSE 1029,8 58 0,0
16.01.2020 13:00:00 15,0 8,5 19,7 8 5 16 8 SE 1030,2 60 0,0
16.01.2020 12:00:00 14,4 7,4 17,6 3 2 10 5 NNW 1030,8 15 0,0
16.01.2020 11:00:00 10,7 5,9 10,1 5 3 17 9 N 1031,4 18 0,0
16.01.2020 10:00:00 7,1 4,7 4,2 5 3 15 8 N 1031,0 19 0,0
16.01.2020 09:00:00 4,8 3,3 3,0 8 4 18 10 N 1030,5 26 0,0
16.01.2020 08:00:00 4,5 3,3 3,1 8 5 15 8 N 1030,1 31 0,0
16.01.2020 07:00:00 4,9 3,9 3,5 8 4 15 8 N 1029,5 29 0,0
16.01.2020 06:00:00 5,5 4,5 2,9 6 3 11 6 NNE 1029,1 28 0,0
16.01.2020 05:00:00 6,3 4,5 3,8 4 2 10 5 NE 1028,9 27 0,0
16.01.2020 04:00:00 7,5 5,8 6,1 5 3 10 6 N 1028,9 20 0,0
16.01.2020 03:00:00 7,7 6,0 6,5 6 3 10 5 N 1029,2 26 0,0
16.01.2020 02:00:00 8,0 6,0 6,9 6 3 12 6 N 1029,0 31 0,0
16.01.2020 01:00:00 7,8 6,1 6,9 8 4 13 7 N 1029,3 24 0,0
16.01.2020 00:00:00 7,6 6,1 6,8 8 5 16 9 N 1029,5 21 0,0
15.01.2020 23:00:00 7,3 6,1 6,5 7 4 16 8 N 1029,4 15 0,0
15.01.2020 22:00:00 6,9 6,2 4,6 10 5 17 9 N 1029,2 9 0,0
15.01.2020 21:00:00 6,7 6,1 4,4 6 4 12 6 N 1029,2 6 0,0
15.01.2020 20:00:00 7,3 6,6 4,6 2 1 9 5 NNW 1029,2 8 0,0
15.01.2020 19:00:00 8,1 7,2 4,2 4 2 9 5 N 1029,0 8 0,0
15.01.2020 18:00:00 9,2 7,6 4,2 0 0 5 3 N 1028,2 13 0,0
15.01.2020 17:00:00 11,0 7,7 6,5 0 0 3 2 N 1028,1 35 0,0
15.01.2020 16:00:00 13,0 7,2 12,6 0 0 6 3 N 1028,0 36 0,0
15.01.2020 15:00:00 13,0 7,2 14,0 0 0 10 5 N 1027,8 43 0,0
15.01.2020 14:00:00 12,5 7,8 12,3 5 3 14 8 N 1027,8 20 0,0
15.01.2020 13:00:00 11,5 8,9 10,7 5 3 11 6 NNW 1028,4 18 0,0
15.01.2020 12:00:00 10,5 8,8 10,4 2 1 6 3 N 1029,0 16 0,0
15.01.2020 11:00:00 9,9 7,8 9,2 0 0 10 6 N 1029,1 12 0,0
15.01.2020 10:00:00 9,3 7,1 8,4 6 4 10 6 N 1028,5 10 0,0
15.01.2020 09:00:00 8,7 6,8 8,1 0 0 11 6 N 1028,0 17 0,0
15.01.2020 08:00:00 8,5 6,6 7,6 6 3 12 7 N 1027,5 31 0,0
15.01.2020 07:00:00 8,3 6,6 7,3 5 3 10 5 N 1027,3 38 0,0
15.01.2020 06:00:00 8,0 6,3 7,1 5 3 11 6 N 1026,9 34 0,0
15.01.2020 05:00:00 8,0 6,1 6,9 7 4 12 6 N 1026,6 17 0,0
15.01.2020 04:00:00 8,3 6,3 7,3 5 3 11 6 N 1026,9 16 0,0
15.01.2020 03:00:00 8,0 6,1 7,1 6 3 13 7 N 1027,2 14 0,0
15.01.2020 02:00:00 8,0 5,8 6,4 9 5 13 7 N 1027,0 8 0,0
15.01.2020 01:00:00 8,3 5,8 7,2 6 3 13 7 N 1027,2 31 0,0
15.01.2020 00:00:00 8,2 5,7 7,4 8 5 16 9 N 1027,4 11 0,0
14.01.2020 23:00:00 8,1 5,6 7,1 8 4 19 10 N 1027,2 9 0,0
14.01.2020 22:00:00 7,6 5,6 6,2 11 6 21 11 N 1026,9 10 0,0
14.01.2020 21:00:00 7,0 5,3 5,6 7 4 14 8 N 1026,8 19 0,0
14.01.2020 20:00:00 7,4 5,7 5,6 10 5 15 8 N 1026,6 17 0,0
14.01.2020 19:00:00 8,1 6,2 3,9 8 4 15 8 N 1026,1 16 0,0
14.01.2020 18:00:00 9,8 7,0 4,0 2 1 5 3 SW 1025,3 58 0,0
14.01.2020 17:00:00 11,1 7,6 8,2 3 2 12 6 SSW 1024,6 60 0,0
14.01.2020 16:00:00 13,4 7,4 12,4 3 2 9 5 S 1024,5 60 0,0
14.01.2020 15:00:00 13,7 7,9 13,5 3 2 16 9 S 1024,5 60 0,0
14.01.2020 14:00:00 13,0 7,2 13,6 13 7 18 10 S 1024,5 60 0,0
14.01.2020 13:00:00 16,1 7,0 16,9 3 2 12 6 SSW 1024,9 20 0,0
14.01.2020 12:00:00 15,2 7,0 19,7 4 2 7 4 SSE 1025,6 57 0,0
14.01.2020 11:00:00 12,4 5,5 15,6 3 1 9 5 NNE 1025,9 20 0,0
14.01.2020 10:00:00 9,4 5,2 6,3 5 3 12 7 N 1025,6 40 0,0
14.01.2020 09:00:00 6,6 4,1 3,5 5 3 9 5 N 1025,0 18 0,0
14.01.2020 08:00:00 6,1 3,6 4,5 5 3 16 9 NNW 1024,8 41 0,0
14.01.2020 07:00:00 6,2 3,7 5,2 8 4 14 7 N 1024,3 52 0,0
14.01.2020 06:00:00 5,7 3,5 4,8 7 4 13 7 N 1023,9 46 0,0
14.01.2020 05:00:00 5,6 3,3 4,5 6 4 18 10 N 1023,5 44 0,0
14.01.2020 04:00:00 5,6 3,1 4,5 7 4 14 8 NNE 1023,9 43 0,0
14.01.2020 03:00:00 5,1 3,1 3,8 8 5 16 9 N 1024,3 42 0,0
14.01.2020 02:00:00 4,5 3,0 2,7 8 4 19 10 N 1024,2 30 0,0
14.01.2020 01:00:00 4,0 2,7 2,5 8 5 18 10 N 1024,2 27 0,0
14.01.2020 00:00:00 4,2 3,2 2,8 8 4 17 9 N 1024,5 17 0,0
13.01.2020 23:00:00 4,5 3,6 2,9 6 4 14 7 N 1024,2 14 0,2
13.01.2020 22:00:00 5,2 4,3 3,5 8 5 16 8 N 1024,4 12 0,0
13.01.2020 21:00:00 5,7 5,0 4,1 8 5 12 7 N 1024,5 10 0,0
13.01.2020 20:00:00 6,8 5,9 5,0 5 3 13 7 NNW 1024,7 11 0,0
13.01.2020 19:00:00 7,8 6,4 6,1 7 4 11 6 N 1024,8 13 0,0
13.01.2020 18:00:00 9,4 7,2 5,9 5 3 8 5 N 1024,3 6 0,0
13.01.2020 17:00:00 11,2 6,7 7,3 0 0 5 3 N 1024,1 60 0,0
13.01.2020 16:00:00 12,7 6,7 13,2 4 2 14 7 S 1024,3 60 0,0
13.01.2020 15:00:00 13,4 7,8 15,8 9 5 16 9 S 1024,6 59 0,0
13.01.2020 14:00:00 14,4 7,9 16,5 9 5 19 10 SSE 1024,9 57 0,0
13.01.2020 13:00:00 14,6 7,9 13,8 8 5 15 8 SSE 1025,5 39 0,0
13.01.2020 12:00:00 13,0 7,2 12,7 5 3 10 5 ENE 1026,5 60 0,0
13.01.2020 11:00:00 10,0 6,0 7,9 6 3 13 7 N 1026,7 17 0,0
13.01.2020 10:00:00 6,2 3,7 4,3 8 4 16 9 N 1026,2 31 0,0
13.01.2020 09:00:00 4,4 2,4 3,0 10 6 19 11 NNE 1025,9 35 0,0
13.01.2020 08:00:00 3,8 2,2 2,9 12 6 21 12 N 1025,6 36 0,0
13.01.2020 07:00:00 3,8 2,2 2,6 13 7 20 11 N 1025,3 41 0,0
13.01.2020 06:00:00 3,7 2,2 2,4 12 6 21 11 N 1025,2 42 0,0
13.01.2020 05:00:00 3,9 2,3 2,3 11 6 19 11 N 1025,0 36 0,0
13.01.2020 04:00:00 3,8 2,2 2,0 12 7 18 10 N 1025,3 36 0,0
13.01.2020 03:00:00 3,9 2,3 2,4 11 6 17 9 N 1025,5 32 0,0
13.01.2020 02:00:00 4,1 2,3 2,3 8 4 14 8 N 1025,4 32 0,0
13.01.2020 01:00:00 3,8 2,3 2,3 9 5 14 8 N 1025,6 27 0,0
13.01.2020 00:00:00 4,1 2,8 2,4 8 4 11 6 N 1026,0 23 0,0
12.01.2020 23:00:00 4,5 3,0 2,6 8 5 13 7 N 1026,2 22 0,0
12.01.2020 22:00:00 4,8 3,5 2,9 7 4 12 6 N 1026,1 20 0,0
12.01.2020 21:00:00 5,2 3,8 2,8 6 3 15 8 N 1026,2 16 0,0
12.01.2020 20:00:00 6,1 4,6 4,6 8 5 16 8 N 1026,2 18 0,0
12.01.2020 19:00:00 7,1 5,1 4,7 8 4 13 7 N 1026,0 20 0,0
12.01.2020 18:00:00 9,2 5,6 3,2 2 1 9 5 N 1026,0 45 0,0
12.01.2020 17:00:00 10,7 5,7 8,2 9 5 16 9 S 1026,0 60 0,0
12.01.2020 16:00:00 13,7 7,0 15,8 14 8 17 9 S 1026,1 42 0,0
12.01.2020 15:00:00 15,0 5,8 17,7 13 7 19 10 S 1026,5 60 0,0
12.01.2020 14:00:00 15,0 5,8 14,4 11 6 18 10 S 1027,0 60 0,0
12.01.2020 13:00:00 15,9 5,2 20,5 7 4 12 7 SSE 1027,6 60 0,0
12.01.2020 12:00:00 14,6 4,6 17,2 3 1 11 6 N 1028,8 19 0,0

tt = temperature
td = dewpoint
tt 5cm = temperature 5cm
ff = wind speed
fx = gusts
dd = wind direction
ppp = reduced air pressure
vv = visibility
rr = precipitation

Next stations